UNISAT-6 (40012 NORAD) Tracking and Keplerian Element Data

This shows tracking and keplerian element data for the satellite.

Feedback or suggestion? Click here.




ElementValue
Catalog40012
NameUNISAT-6
Epoch Orbit44493
Epoch Day269.86906265
Epoch Year2022
RAAN92.4418
Inclination97.6637
Eccentricity0.0056927
Argument of Perigee189.2361
Mean Anonmoly170.7808
Mean Motion14.75122901
Decay Rate1.527E-05
L11 40012U 14033C 22269.86906265 .00001527 00000+0 22775-3 0 9991
L22 40012 97.6637 92.4418 0056927 189.2361 170.7808 14.75122901444931

Live tracking and technical data element details for UNISAT-6 (NORAD 40012). UNISAT-6 can be tracked NOW for your location showing map with azimuth and elevation plus other details from your city location.

Track the satellite on the map from your city or location and see movement details for azimuth, elevation, latitude, longitude, range, height, and movement on the map or in text.







IsCatalogInMostPopularTable: catalog: 40012, numindb: 604
Update: records affected: 1



GetName: 40012 UNISAT-6

Hit Count: updated at: Fri, 30 Sep 2022 03:12:31 GMT